Time,TemperatureF,DewpointF,PressureIn,WindDirection,WindDirectionDegrees,WindSpeedMPH,WindSpeedGustMPH,Humidity,HourlyPrecipIn,Conditions,Clouds,dailyrainin,SolarRadiationWatts/m^2,SoftwareType,DateUTC
2013-01-01 00:02:00,12.0,8.0,-100.00,SSE,161,1.0,5.0,85,0.00,,,-99.99,0.000000,,2013-01-01 07:02:00,
2013-01-01 00:11:00,12.0,8.0,-100.00,SSE,161,1.0,5.0,85,0.00,,,-99.99,0.000000,,2013-01-01 07:11:00,
2013-01-01 00:32:00,10.0,6.0,-100.00,SW,233,1.0,4.0,84,0.00,,,0.00,0.000000,,2013-01-01 07:32:00,
2013-01-01 00:42:00,10.0,6.0,-100.00,SW,233,1.0,4.0,84,0.00,,,0.00,0.000000,,2013-01-01 07:42:00,
2013-01-01 00:52:00,10.0,6.0,-100.00,SW,233,1.0,4.0,84,0.00,,,0.00,0.000000,,2013-01-01 07:52:00,
2013-01-01 01:02:00,10.0,6.0,-100.00,SW,233,1.0,4.0,84,0.00,,,0.00,0.000000,,2013-01-01 08:02:00,
2013-01-01 01:11:00,10.0,6.0,-100.00,SW,233,1.0,4.0,84,0.00,,,0.00,0.000000,,2013-01-01 08:11:00,
2013-01-01 01:42:00,10.0,6.0,-100.00,South,181,2.0,3.0,84,0.00,,,0.00,0.000000,,2013-01-01 08:42:00,
2013-01-01 01:53:00,10.0,6.0,-100.00,South,181,2.0,3.0,84,0.00,,,0.00,0.000000,,2013-01-01 08:53:00,
2013-01-01 02:02:00,10.0,6.0,-100.00,South,181,2.0,3.0,84,0.00,,,0.00,0.000000,,2013-01-01 09:02:00,
2013-01-01 02:11:00,10.0,6.0,-100.00,South,181,2.0,3.0,84,0.00,,,0.00,0.000000,,2013-01-01 09:11:00,
2013-01-01 02:32:00,9.0,5.0,-100.00,ESE,120,2.0,3.0,83,0.00,,,0.00,0.000000,,2013-01-01 09:32:00,
2013-01-01 02:42:00,9.0,5.0,-100.00,ESE,120,2.0,3.0,83,0.00,,,0.00,0.000000,,2013-01-01 09:42:00,
2013-01-01 02:52:00,9.0,5.0,-100.00,ESE,120,2.0,3.0,83,0.00,,,0.00,0.000000,,2013-01-01 09:52:00,
2013-01-01 03:02:00,9.0,5.0,-100.00,ESE,120,2.0,3.0,83,0.00,,,0.00,0.000000,,2013-01-01 10:02:00,
2013-01-01 03:11:00,9.0,5.0,-100.00,ESE,120,2.0,3.0,83,0.00,,,0.00,0.000000,,2013-01-01 10:11:00,
2013-01-01 03:12:00,10.0,6.0,-100.00,NNE,26,1.0,3.0,83,0.00,,,0.00,0.000000,,2013-01-01 10:12:00,
2013-01-01 03:33:00,10.0,6.0,-100.00,NNE,26,1.0,3.0,83,0.00,,,0.00,0.000000,,2013-01-01 10:33:00,
2013-01-01 03:43:00,10.0,6.0,-100.00,NNE,26,1.0,3.0,83,0.00,,,0.00,0.000000,,2013-01-01 10:43:00,
2013-01-01 03:52:00,10.0,6.0,-100.00,NNE,26,1.0,3.0,83,0.00,,,0.00,0.000000,,2013-01-01 10:52:00,
2013-01-01 04:02:00,10.0,6.0,-100.00,NNE,26,1.0,3.0,83,0.00,,,0.00,0.000000,,2013-01-01 11:02:00,
2013-01-01 04:12:00,9.0,5.0,-100.00,NE,34,2.0,2.0,83,0.00,,,-99.99,0.000000,,2013-01-01 11:12:00,
2013-01-01 04:33:00,9.0,5.0,-100.00,NE,34,2.0,2.0,83,0.00,,,-99.99,0.000000,,2013-01-01 11:33:00,
2013-01-01 04:43:00,9.0,5.0,-100.00,NE,34,2.0,2.0,83,0.00,,,-99.99,0.000000,,2013-01-01 11:43:00,
2013-01-01 04:53:00,9.0,5.0,-100.00,NE,34,2.0,2.0,83,0.00,,,-99.99,0.000000,,2013-01-01 11:53:00,
2013-01-01 05:02:00,9.0,5.0,-100.00,NE,34,2.0,2.0,83,0.00,,,-99.99,0.000000,,2013-01-01 12:02:00,
2013-01-01 05:12:00,8.0,4.0,-100.00,NNE,18,2.0,2.0,83,0.00,,,0.00,0.000000,,2013-01-01 12:12:00,
2013-01-01 05:33:00,8.0,4.0,-100.00,NNE,18,2.0,2.0,83,0.00,,,0.00,0.000000,,2013-01-01 12:33:00,
2013-01-01 05:43:00,8.0,4.0,-100.00,NNE,18,2.0,2.0,83,0.00,,,0.00,0.000000,,2013-01-01 12:43:00,
2013-01-01 05:52:00,8.0,4.0,-100.00,NNE,18,2.0,2.0,83,0.00,,,0.00,0.000000,,2013-01-01 12:52:00,
2013-01-01 06:02:00,8.0,4.0,-100.00,NNE,18,2.0,2.0,83,0.00,,,0.00,0.000000,,2013-01-01 13:02:00,
2013-01-01 06:12:00,7.0,3.0,-100.00,ENE,61,2.0,3.0,82,0.00,,,0.00,0.000000,,2013-01-01 13:12:00,
2013-01-01 06:33:00,7.0,3.0,-100.00,ENE,61,2.0,3.0,82,0.00,,,0.00,0.000000,,2013-01-01 13:33:00,
2013-01-01 06:43:00,7.0,3.0,-100.00,ENE,61,2.0,3.0,82,0.00,,,0.00,0.000000,,2013-01-01 13:43:00,
2013-01-01 06:52:00,7.0,3.0,-100.00,ENE,61,2.0,3.0,82,0.00,,,0.00,0.000000,,2013-01-01 13:52:00,
2013-01-01 07:02:00,7.0,3.0,-100.00,ENE,61,2.0,3.0,82,0.00,,,0.00,0.000000,,2013-01-01 14:02:00,
2013-01-01 07:12:00,6.0,1.0,-100.00,NNE,16,2.0,3.0,81,0.00,,,0.00,0.000000,,2013-01-01 14:12:00,
2013-01-01 07:33:00,6.0,1.0,-100.00,NNE,16,2.0,3.0,81,0.00,,,0.00,0.000000,,2013-01-01 14:33:00,
2013-01-01 07:43:00,6.0,1.0,-100.00,NNE,16,2.0,3.0,81,0.00,,,0.00,0.000000,,2013-01-01 14:43:00,
2013-01-01 07:53:00,6.0,1.0,-100.00,NNE,16,2.0,3.0,81,0.00,,,0.00,0.000000,,2013-01-01 14:53:00,
2013-01-01 08:02:00,6.0,1.0,-100.00,NNE,16,2.0,3.0,81,0.00,,,0.00,0.000000,,2013-01-01 15:02:00,
2013-01-01 08:33:00,8.0,3.0,-100.00,NE,40,1.0,3.0,80,0.00,,,0.00,15.000000,,2013-01-01 15:33:00,
2013-01-01 08:43:00,8.0,3.0,-100.00,NE,40,1.0,3.0,80,0.00,,,0.00,15.000000,,2013-01-01 15:43:00,
2013-01-01 08:53:00,8.0,3.0,-100.00,NE,40,1.0,3.0,80,0.00,,,0.00,15.000000,,2013-01-01 15:53:00,
2013-01-01 09:02:00,8.0,3.0,-100.00,NE,40,1.0,3.0,80,0.00,,,0.00,15.000000,,2013-01-01 16:02:00,
2013-01-01 09:11:00,8.0,3.0,-100.00,NE,40,1.0,3.0,80,0.00,,,0.00,15.000000,,2013-01-01 16:11:00,
2013-01-01 09:12:00,12.0,7.0,-100.00,NNE,23,1.0,4.0,81,0.00,,,0.00,63.000000,,2013-01-01 16:12:00,
2013-01-01 09:33:00,12.0,7.0,-100.00,NNE,23,1.0,4.0,81,0.00,,,0.00,63.000000,,2013-01-01 16:33:00,
2013-01-01 09:43:00,12.0,7.0,-100.00,NNE,23,1.0,4.0,81,0.00,,,0.00,63.000000,,2013-01-01 16:43:00,
2013-01-01 09:53:00,12.0,7.0,-100.00,NNE,23,1.0,4.0,81,0.00,,,0.00,63.000000,,2013-01-01 16:53:00,
2013-01-01 10:02:00,12.0,7.0,-100.00,NNE,23,1.0,4.0,81,0.00,,,0.00,63.000000,,2013-01-01 17:02:00,
2013-01-01 10:12:00,13.0,8.0,-100.00,SE,144,2.0,4.0,81,0.00,,,0.00,64.000000,,2013-01-01 17:12:00,
2013-01-01 10:33:00,13.0,8.0,-100.00,SE,144,2.0,4.0,81,0.00,,,0.00,64.000000,,2013-01-01 17:33:00,
2013-01-01 10:43:00,13.0,8.0,-100.00,SE,144,2.0,4.0,81,0.00,,,0.00,64.000000,,2013-01-01 17:43:00,
2013-01-01 10:53:00,13.0,8.0,-100.00,SE,144,2.0,4.0,81,0.00,,,0.00,64.000000,,2013-01-01 17:53:00,
2013-01-01 11:02:00,13.0,8.0,-100.00,SE,144,2.0,4.0,81,0.00,,,0.00,64.000000,,2013-01-01 18:02:00,
2013-01-01 11:33:00,13.0,9.0,-100.00,SSE,150,2.0,4.0,82,0.00,,,0.00,69.000000,,2013-01-01 18:33:00,
2013-01-01 11:43:00,13.0,9.0,-100.00,SSE,150,2.0,4.0,82,0.00,,,0.00,69.000000,,2013-01-01 18:43:00,
2013-01-01 11:53:00,13.0,9.0,-100.00,SSE,150,2.0,4.0,82,0.00,,,0.00,69.000000,,2013-01-01 18:53:00,
2013-01-01 12:02:00,13.0,9.0,-100.00,SSE,150,2.0,4.0,82,0.00,,,0.00,69.000000,,2013-01-01 19:02:00,
2013-01-01 12:11:00,13.0,9.0,-100.00,SSE,150,2.0,4.0,82,0.00,,,0.00,69.000000,,2013-01-01 19:11:00,
2013-01-01 12:12:00,16.0,11.0,-100.00,NNW,347,1.0,3.0,79,0.00,,,0.00,88.000000,,2013-01-01 19:12:00,
2013-01-01 12:33:00,16.0,11.0,-100.00,NNW,347,1.0,3.0,79,0.00,,,0.00,88.000000,,2013-01-01 19:33:00,
2013-01-01 12:43:00,16.0,11.0,-100.00,NNW,347,1.0,3.0,79,0.00,,,0.00,88.000000,,2013-01-01 19:43:00,
2013-01-01 12:52:00,16.0,11.0,-100.00,NNW,347,1.0,3.0,79,0.00,,,0.00,88.000000,,2013-01-01 19:52:00,
2013-01-01 13:02:00,16.0,11.0,-100.00,NNW,347,1.0,3.0,79,0.00,,,0.00,88.000000,,2013-01-01 20:02:00,
2013-01-01 13:12:00,15.0,10.0,-100.00,WSW,258,1.0,2.0,80,0.00,,,0.00,47.000000,,2013-01-01 20:12:00,
2013-01-01 13:32:00,15.0,10.0,-100.00,WSW,258,1.0,2.0,80,0.00,,,0.00,47.000000,,2013-01-01 20:32:00,
2013-01-01 13:42:00,15.0,10.0,-100.00,WSW,258,1.0,2.0,80,0.00,,,0.00,47.000000,,2013-01-01 20:42:00,
2013-01-01 13:53:00,15.0,10.0,-100.00,WSW,258,1.0,2.0,80,0.00,,,0.00,47.000000,,2013-01-01 20:53:00,
2013-01-01 14:03:00,15.0,10.0,-100.00,WSW,258,1.0,2.0,80,0.00,,,0.00,47.000000,,2013-01-01 21:03:00,
2013-01-01 14:12:00,16.0,11.0,-100.00,South,173,3.0,5.0,80,0.00,,,0.00,51.000000,,2013-01-01 21:12:00,
2013-01-01 14:33:00,16.0,11.0,-100.00,South,173,3.0,5.0,80,0.00,,,0.00,51.000000,,2013-01-01 21:33:00,
2013-01-01 14:42:00,16.0,11.0,-100.00,South,173,3.0,5.0,80,0.00,,,0.00,51.000000,,2013-01-01 21:42:00,
2013-01-01 14:53:00,16.0,11.0,-100.00,South,173,3.0,5.0,80,0.00,,,0.00,51.000000,,2013-01-01 21:53:00,
2013-01-01 15:02:00,16.0,11.0,-100.00,South,173,3.0,5.0,80,0.00,,,0.00,51.000000,,2013-01-01 22:02:00,
2013-01-01 15:12:00,16.0,12.0,-100.00,WSW,243,3.0,7.0,83,0.00,,,0.00,34.000000,,2013-01-01 22:12:00,
2013-01-01 15:33:00,16.0,12.0,-100.00,WSW,243,3.0,7.0,83,0.00,,,0.00,34.000000,,2013-01-01 22:33:00,
2013-01-01 15:43:00,16.0,12.0,-100.00,WSW,243,3.0,7.0,83,0.00,,,0.00,34.000000,,2013-01-01 22:43:00,
2013-01-01 15:52:00,16.0,12.0,-100.00,WSW,243,3.0,7.0,83,0.00,,,0.00,34.000000,,2013-01-01 22:52:00,
2013-01-01 16:02:00,16.0,12.0,-100.00,WSW,243,3.0,7.0,83,0.00,,,0.00,34.000000,,2013-01-01 23:02:00,
2013-01-01 16:12:00,15.0,10.0,-100.00,WSW,248,2.0,6.0,81,0.00,,,0.00,29.000000,,2013-01-01 23:12:00,
2013-01-01 16:32:00,15.0,10.0,-100.00,WSW,248,2.0,6.0,81,0.00,,,0.00,29.000000,,2013-01-01 23:32:00,
2013-01-01 16:42:00,15.0,10.0,-100.00,WSW,248,2.0,6.0,81,0.00,,,0.00,29.000000,,2013-01-01 23:42:00,
2013-01-01 16:52:00,15.0,10.0,-100.00,WSW,248,2.0,6.0,81,0.00,,,0.00,29.000000,,2013-01-01 23:52:00,
2013-01-01 17:02:00,15.0,10.0,-100.00,WSW,248,2.0,6.0,81,0.00,,,0.00,29.000000,,2013-01-02 00:02:00,
2013-01-01 17:32:00,11.0,7.0,-100.00,West,272,4.0,5.0,83,0.00,,,0.00,7.000000,,2013-01-02 00:32:00,
2013-01-01 17:43:00,11.0,7.0,-100.00,West,272,4.0,5.0,83,0.00,,,0.00,7.000000,,2013-01-02 00:43:00,
2013-01-01 17:52:00,11.0,7.0,-100.00,West,272,4.0,5.0,83,0.00,,,0.00,7.000000,,2013-01-02 00:52:00,
2013-01-01 18:02:00,11.0,7.0,-100.00,West,272,4.0,5.0,83,0.00,,,0.00,7.000000,,2013-01-02 01:02:00,
2013-01-01 18:11:00,11.0,7.0,-100.00,West,272,4.0,5.0,83,0.00,,,0.00,7.000000,,2013-01-02 01:11:00,
2013-01-01 18:12:00,11.0,7.0,-100.00,West,264,3.0,6.0,85,0.00,,,0.00,0.000000,,2013-01-02 01:12:00,
2013-01-01 18:32:00,11.0,7.0,-100.00,West,264,3.0,6.0,85,0.00,,,0.00,0.000000,,2013-01-02 01:32:00,
2013-01-01 18:42:00,11.0,7.0,-100.00,West,264,3.0,6.0,85,0.00,,,0.00,0.000000,,2013-01-02 01:42:00,
2013-01-01 18:52:00,11.0,7.0,-100.00,West,264,3.0,6.0,85,0.00,,,0.00,0.000000,,2013-01-02 01:52:00,
2013-01-01 19:02:00,11.0,7.0,-100.00,West,264,3.0,6.0,85,0.00,,,0.00,0.000000,,2013-01-02 02:02:00,
2013-01-01 19:32:00,10.0,6.0,-100.00,WNW,292,3.0,5.0,84,0.00,,,0.00,0.000000,,2013-01-02 02:32:00,
2013-01-01 19:42:00,10.0,6.0,-100.00,WNW,292,3.0,5.0,84,0.00,,,0.00,0.000000,,2013-01-02 02:42:00,
2013-01-01 19:53:00,10.0,6.0,-100.00,WNW,292,3.0,5.0,84,0.00,,,0.00,0.000000,,2013-01-02 02:53:00,
2013-01-01 20:02:00,10.0,6.0,-100.00,WNW,292,3.0,5.0,84,0.00,,,0.00,0.000000,,2013-01-02 03:02:00,
2013-01-01 20:11:00,10.0,6.0,-100.00,WNW,292,3.0,5.0,84,0.00,,,0.00,0.000000,,2013-01-02 03:11:00,
2013-01-01 20:12:00,9.0,5.0,-100.00,NNW,328,4.0,6.0,84,0.00,,,0.00,0.000000,,2013-01-02 03:12:00,
2013-01-01 20:32:00,9.0,5.0,-100.00,NNW,328,4.0,6.0,84,0.00,,,0.00,0.000000,,2013-01-02 03:32:00,
2013-01-01 20:42:00,9.0,5.0,-100.00,NNW,328,4.0,6.0,84,0.00,,,0.00,0.000000,,2013-01-02 03:42:00,
2013-01-01 20:52:00,9.0,5.0,-100.00,NNW,328,4.0,6.0,84,0.00,,,0.00,0.000000,,2013-01-02 03:52:00,
2013-01-01 21:02:00,9.0,5.0,-100.00,NNW,328,4.0,6.0,84,0.00,,,0.00,0.000000,,2013-01-02 04:02:00,
2013-01-01 21:12:00,9.0,5.0,-100.00,SW,220,2.0,5.0,84,0.00,,,0.00,0.000000,,2013-01-02 04:12:00,
2013-01-01 21:32:00,9.0,5.0,-100.00,SW,220,2.0,5.0,84,0.00,,,0.00,0.000000,,2013-01-02 04:32:00,
2013-01-01 21:42:00,9.0,5.0,-100.00,SW,220,2.0,5.0,84,0.00,,,0.00,0.000000,,2013-01-02 04:42:00,
2013-01-01 21:52:00,9.0,5.0,-100.00,SW,220,2.0,5.0,84,0.00,,,0.00,0.000000,,2013-01-02 04:52:00,
2013-01-01 22:03:00,9.0,5.0,-100.00,SW,220,2.0,5.0,84,0.00,,,0.00,0.000000,,2013-01-02 05:03:00,
2013-01-01 22:33:00,9.0,5.0,-100.00,SE,131,1.0,3.0,84,0.00,,,0.00,0.000000,,2013-01-02 05:33:00,
2013-01-01 22:43:00,9.0,5.0,-100.00,SE,131,1.0,3.0,84,0.00,,,0.00,0.000000,,2013-01-02 05:43:00,
2013-01-01 22:53:00,9.0,5.0,-100.00,SE,131,1.0,3.0,84,0.00,,,0.00,0.000000,,2013-01-02 05:53:00,
2013-01-01 23:02:00,9.0,5.0,-100.00,SE,131,1.0,3.0,84,0.00,,,0.00,0.000000,,2013-01-02 06:02:00,
2013-01-01 23:11:00,9.0,5.0,-100.00,SE,131,1.0,3.0,84,0.00,,,0.00,0.000000,,2013-01-02 06:11:00,
2013-01-01 23:12:00,10.0,6.0,-100.00,ENE,59,1.0,3.0,84,0.00,,,0.00,0.000000,,2013-01-02 06:12:00,
2013-01-01 23:32:00,10.0,6.0,-100.00,ENE,59,1.0,3.0,84,0.00,,,0.00,0.000000,,2013-01-02 06:32:00,
2013-01-01 23:42:00,10.0,6.0,-100.00,ENE,59,1.0,3.0,84,0.00,,,0.00,0.000000,,2013-01-02 06:42:00,
2013-01-01 23:52:00,10.0,6.0,-100.00,ENE,59,1.0,3.0,84,0.00,,,0.00,0.000000,,2013-01-02 06:52:00,